User: anonymous   Login
Location: Unspecified
(0.0000°N, 0.0000°E)
Time: 07:49:50
(UTC+00:00)
Language:

NOSS 2-2 (E) - Orbit

View from above orbital plane
View from above orbital plane
View from above satellite
View from above satellite

Ground track
Ground track

The orbit data is extracted from the following two-line orbital elements,

1 21809U 91076E   21331.68342787 0.00000750  00000-0  11496-3 0    07
2 21809  63.3271 209.2265 0874521  43.8279 316.1721 13.41904376    09
Epoch (UTC): 27 November 2021 16:24:08
Eccentricity: 0.0874521
inclination: 63.3271°
perigee height: 448 km
apogee height: 1756 km
right ascension of ascending node: 209.2265°
argument of perigee: 43.8279°
revolutions per day: 13.41904376
mean anomaly at epoch: 316.1721°
orbit number at epoch: 0

The dashed part of the orbit path shows where the satellite is in the earth's shadow,  

DLR